Hourly Data Report for October 01, 2017

All times are specified in Local Standard Time (LST). Add 1 hour to adjust for Daylight Saving Time where and when it is observed.

MALAHAT
BRITISH COLUMBIA

48°34'29.700" N
123°31'47.700" W
365.80 m
1014820
71774
WKH

Download Data

Hourly Data (October 2017)
Hourly Data Report for October 1, 2017
Temp Definition
°C
Dew Point Temp Definition
°C
Rel Hum Definition
%
Wind Dir Definition
10's deg

Wind Spd Definition
km/h
Visibility Definition
km
Stn Press Definition
kPa
Hmdx Definition


Wind Chill Definition


Weather Definition


TIME
00:00 9.5 5.0 73 LegendMM LegendMM   97.44     LegendNANA
01:00 7.6 4.5 81 LegendMM LegendMM   97.46     LegendNANA
02:00 7.5 4.7 82 LegendMM LegendMM   97.44     LegendNANA
03:00 9.0 3.9 70 LegendMM LegendMM   97.46     LegendNANA
04:00 8.8 4.0 72 LegendMM LegendMM   97.48     LegendNANA
05:00 9.7 3.2 64 LegendMM LegendMM   97.48     LegendNANA
06:00 10.0 3.1 62 LegendMM LegendMM   97.51     LegendNANA
07:00 9.9 3.2 63 LegendMM LegendMM   97.55     LegendNANA
08:00 10.4 3.5 62 LegendMM LegendMM   97.57     LegendNANA
09:00 11.2 5.2 67 LegendMM LegendMM   97.58     LegendNANA
10:00 11.4 5.6 67 LegendMM LegendMM   97.59     LegendNANA
11:00 10.8 5.2 68 LegendMM LegendMM   97.60     LegendNANA
12:00 11.9 5.7 66 LegendMM LegendMM   97.62     LegendNANA
13:00 11.8 5.0 63 LegendMM LegendMM   97.63     LegendNANA
14:00 12.2 4.3 59 LegendMM LegendMM   97.59     LegendNANA
15:00 12.6 4.2 57 LegendMM LegendMM   97.58     LegendNANA
16:00 11.3 4.0 61 LegendMM LegendMM   97.59     LegendNANA
17:00 10.7 3.8 62 LegendMM LegendMM   97.61     LegendNANA
18:00 9.9 4.3 68 LegendMM LegendMM   97.63     LegendNANA
19:00 9.6 4.5 71 LegendMM LegendMM   97.64     LegendNANA
20:00 9.7 4.3 69 LegendMM LegendMM   97.64     LegendNANA
21:00 9.2 4.2 71 LegendMM LegendMM   97.61     LegendNANA
22:00 9.5 2.9 63 LegendMM LegendMM   97.59     LegendNANA
23:00 9.7 3.0 63 LegendMM LegendMM   97.60     LegendNANA

Notes on Data Quality.

Legend

  • E = Estimated
  • M = Missing
  • NA = Not Available
  • ‡ = Partner data that is not subject to review by the National Climate Archives
Date modified: